FW6455 Weather Reports


Display with metric or nautical units.
time (UTC)temp
F
wind
direction
speed
MPH
gust
MPH
rain 1hr
in
rain 24hr
in
rain mn
in
humidity
%
barometer
mb
20260902065541 81 0 0.0 0.0 0.00 0.00 0.00 74 1016.7
20260902065037 81 0 0.0 0.0 0.00 0.00 0.00 74 1016.7
20260902064558 82 0 0.0 0.0 0.00 0.00 0.00 74 1016.6
20260902064039 82 0 0.0 0.0 0.00 0.00 0.00 73 1016.6
20260902063539 82 0 0.0 0.0 0.00 0.00 0.00 73 1016.7
20260902063055 82 0 0.0 0.0 0.00 0.00 0.00 73 1016.6
20260902062543 82 0 0.0 1.0 0.00 0.00 0.00 73 1016.6
20260902062039 82 0 0.0 1.0 0.00 0.00 0.00 73 1016.6
20260902061037 83 0 0.0 1.0 0.00 0.00 0.00 72 1016.5
20260902060538 83 0 0.0 1.0 0.00 0.00 0.00 72 1016.5
20260902060107 83 0 0.0 0.0 0.00 0.00 0.00 72 1016.6
20260902055539 83 0 0.0 0.0 0.00 0.00 0.00 71 1016.6
20260902055039 83 0 0.0 1.0 0.00 0.00 0.00 71 1016.6
20260902054611 83 0 0.0 1.0 0.00 0.00 0.00 71 1016.5
20260902054039 84 0 0.0 0.0 0.00 0.00 0.00 70 1016.6
20260902053539 84 0 0.0 1.0 0.00 0.00 0.00 70 1016.6
20260902053109 84 0 0.0 1.0 0.00 0.00 0.00 70 1016.5
20260902052538 84 0 0.0 1.0 0.00 0.00 0.00 69 1016.6
20260902052039 84 124 0.0 1.0 0.00 0.00 0.00 69 1016.6
20260902051603 84 0 0.0 1.0 0.00 0.00 0.00 69 1016.5
20260902051039 84 0 0.0 1.0 0.00 0.00 0.00 69 1016.4
20260902050539 84 0 0.0 1.0 0.00 0.00 0.00 69 1016.5
20260902050105 85 0 0.0 1.0 0.00 0.00 0.00 68 1016.4
20260902045541 85 0 0.0 1.0 0.00 0.00 0.00 68 1016.5
20260902045036 85 0 0.0 0.0 0.00 0.00 0.00 68 1016.5
20260902044559 85 0 0.0 1.0 0.00 0.00 0.00 67 1016.4
20260902044039 85 0 0.0 1.0 0.00 0.00 0.00 67 1016.4
20260902043539 85 205 0.0 1.0 0.00 0.00 0.00 67 1016.4
20260902043109 85 0 0.0 1.0 0.00 0.00 0.00 67 1016.5
20260902042539 86 120 0.0 2.0 0.00 0.00 0.00 66 1016.5
20260902042040 86 0 0.0 2.0 0.00 0.00 0.00 66 1016.5
20260902041601 86 191 0.0 2.0 0.00 0.00 0.00 66 1016.4
20260902041041 86 199 0.0 2.0 0.00 0.00 0.00 65 1016.4
20260902040540 86 166 0.0 2.0 0.00 0.00 0.00 65 1016.4
20260902040104 86 137 0.0 2.0 0.00 0.00 0.00 65 1016.5
20260902035539 86 0 0.0 3.0 0.00 0.00 0.00 64 1016.4
20260902035039 86 198 0.0 3.0 0.00 0.00 0.00 64 1016.4
20260902034603 86 154 0.0 3.0 0.00 0.00 0.00 63 1016.3
20260902034042 86 188 0.0 3.0 0.00 0.00 0.00 63 1016.3
20260902033540 86 186 0.0 2.0 0.00 0.00 0.00 63 1016.3
20260902033058 86 191 0.0 3.0 0.00 0.00 0.00 63 1016.2
20260902032538 86 103 0.0 4.0 0.00 0.00 0.00 63 1016.2
20260902032039 86 189 1.0 4.0 0.00 0.00 0.00 63 1016.0
20260902031605 85 0 0.0 0.0 0.00 0.00 0.00 64 1015.9
20260902031037 85 0 0.0 0.0 0.00 0.00 0.00 63 1015.6
20260902030536 85 0 0.0 0.0 0.00 0.00 0.00 63 1015.6
20260902030058 86 0 0.0 0.0 0.00 0.00 0.00 63 1015.4
20260902025541 86 0 0.0 0.0 0.00 0.00 0.00 63 1015.5
20260902025040 86 0 0.0 0.0 0.00 0.00 0.00 62 1015.4
20260902024559 86 0 0.0 0.0 0.00 0.00 0.00 62 1015.3
20260902024039 86 0 0.0 0.0 0.00 0.00 0.00 62 1015.2
20260902023539 86 0 0.0 0.0 0.00 0.00 0.00 62 1015.1
20260902023108 87 0 0.0 0.0 0.00 0.00 0.00 62 1015.1
20260902022620 87 0 0.0 0.0 0.00 0.00 0.00 62 1014.9
20260902022039 87 0 0.0 0.0 0.00 0.00 0.00 61 1014.9
20260902021601 87 0 0.0 0.0 0.00 0.00 0.00 60 1014.9
20260902021040 87 0 0.0 0.0 0.00 0.00 0.00 60 1014.8
20260902020537 87 0 0.0 0.0 0.00 0.00 0.00 60 1014.8
20260902020058 87 0 0.0 0.0 0.00 0.00 0.00 60 1014.7
20260902015540 88 0 0.0 0.0 0.00 0.00 0.00 60 1014.8
20260902015040 88 0 0.0 0.0 0.00 0.00 0.00 59 1014.7
20260902014559 88 0 0.0 0.0 0.00 0.00 0.00 59 1014.7
20260902014039 88 0 0.0 0.0 0.00 0.00 0.00 58 1014.7
20260902013536 89 0 0.0 0.0 0.00 0.00 0.00 58 1014.6
20260902013107 89 0 0.0 0.0 0.00 0.00 0.00 58 1014.5
20260902012539 89 0 0.0 0.0 0.00 0.00 0.00 57 1014.6
20260902012039 90 0 0.0 0.0 0.00 0.00 0.00 56 1014.5
20260902011608 90 0 0.0 0.0 0.00 0.00 0.00 56 1014.6
20260902011039 91 0 0.0 0.0 0.00 0.00 0.00 55 1014.5
20260902010538 91 0 0.0 0.0 0.00 0.00 0.00 55 1014.5
20260902010107 91 0 0.0 0.0 0.00 0.00 0.00 54 1014.5
20260902005536 91 0 0.0 0.0 0.00 0.00 0.00 54 1014.4
20260902005037 92 0 0.0 0.0 0.00 0.00 0.00 53 1014.4
20260902004559 92 0 0.0 0.0 0.00 0.00 0.00 52 1014.4
20260902004039 93 0 0.0 0.0 0.00 0.00 0.00 52 1014.4
20260902003539 93 0 0.0 0.0 0.00 0.00 0.00 51 1014.4
20260902003107 93 0 0.0 1.0 0.00 0.00 0.00 50 1014.3
20260902002539 93 0 0.0 1.0 0.00 0.00 0.00 50 1014.4
20260902002039 94 0 0.0 1.0 0.00 0.00 0.00 50 1014.4
20260902001620 94 0 0.0 1.0 0.00 0.00 0.00 49 1014.4
20260902001043 94 94 0.0 1.0 0.00 0.00 0.00 49 1014.5
20260902000539 94 0 0.0 3.0 0.00 0.00 0.00 49 1014.5
20260902000104 94 89 0.0 3.0 0.00 0.00 0.00 49 1014.5
20260901235542 94 66 1.0 3.0 0.00 0.00 0.00 48 1014.5
20260901235040 95 101 1.0 4.0 0.00 0.00 0.00 48 1014.6
20260901234558 95 94 1.0 4.0 0.00 0.00 0.00 48 1014.6
20260901234043 95 283 2.0 4.0 0.00 0.00 0.00 48 1014.7
20260901233539 95 79 1.0 8.0 0.00 0.00 0.00 47 1014.7
20260901233057 95 125 1.0 8.0 0.00 0.00 0.00 47 1014.7
20260901232539 95 113 2.0 8.0 0.00 0.00 0.00 46 1014.7
20260901232039 96 124 1.0 6.0 0.00 0.00 0.00 47 1014.8
20260901231607 96 94 0.0 6.0 0.00 0.00 0.00 47 1014.8
20260901231036 96 54 1.0 6.0 0.00 0.00 0.00 47 1014.7
20260901230537 96 84 2.0 7.0 0.00 0.00 0.00 46 1014.9
20260901230058 96 145 1.0 7.0 0.00 0.00 0.00 46 1014.7
20260901225537 96 89 2.0 7.0 0.00 0.00 0.00 46 1014.8
20260901225037 96 60 1.0 8.0 0.00 0.00 0.00 47 1014.9
20260901224601 95 95 1.0 8.0 0.00 0.00 0.00 47 1014.9
20260901224039 96 96 2.0 6.0 0.00 0.00 0.00 47 1014.8
20260901223539 96 93 2.0 6.0 0.00 0.00 0.00 46 1014.7
20260901223101 96 44 2.0 6.0 0.00 0.00 0.00 46 1014.7
20260901222539 96 115 2.0 7.0 0.00 0.00 0.00 46 1014.8
20260901222040 96 113 2.0 8.0 0.00 0.00 0.00 46 1014.8
20260901221621 97 81 4.0 8.0 0.00 0.00 0.00 45 1014.8
20260901221038 98 311 2.0 6.0 0.00 0.00 0.00 44 1014.7
20260901220538 98 85 1.0 7.0 0.00 0.00 0.00 44 1014.8
20260901220115 98 25 3.0 7.0 0.00 0.00 0.00 45 1014.7
20260901215539 97 58 2.0 5.0 0.00 0.00 0.00 45 1014.7
20260901215036 97 31 1.0 5.0 0.00 0.00 0.00 45 1014.9
20260901214604 97 82 1.0 4.0 0.00 0.00 0.00 45 1014.9
20260901214039 98 65 2.0 4.0 0.00 0.00 0.00 45 1015.0
20260901213539 97 63 1.0 5.0 0.00 0.00 0.00 45 1015.0
20260901213101 97 0 2.0 5.0 0.00 0.00 0.00 45 1015.1
20260901212540 97 18 1.0 5.0 0.00 0.00 0.00 46 1015.0
20260901212042 97 139 1.0 5.0 0.00 0.00 0.00 46 1015.1
20260901211600 96 52 2.0 4.0 0.00 0.00 0.00 46 1015.2
20260901211039 97 108 1.0 4.0 0.00 0.00 0.00 47 1015.4
20260901210536 96 134 1.0 7.0 0.00 0.00 0.00 46 1015.3
20260901210059 97 151 0.0 7.0 0.00 0.00 0.00 47 1015.3
20260901205537 97 108 3.0 7.0 0.00 0.00 0.00 45 1015.4
20260901205041 98 127 0.0 6.0 0.00 0.00 0.00 44 1015.4
20260901204557 98 42 1.0 6.0 0.00 0.00 0.00 44 1015.4
20260901204040 98 0 0.0 2.0 0.00 0.00 0.00 44 1015.5
20260901203537 97 0 1.0 4.0 0.00 0.00 0.00 45 1015.5
20260901203104 97 0 1.0 6.0 0.00 0.00 0.00 45 1015.6
20260901202536 97 109 2.0 6.0 0.00 0.00 0.00 44 1015.7
20260901202037 97 91 2.0 6.0 0.00 0.00 0.00 45 1015.6
20260901201600 96 0 0.0 2.0 0.00 0.00 0.00 46 1015.6
20260901201039 96 168 0.0 7.0 0.00 0.00 0.00 46 1015.7
20260901200537 96 39 0.0 7.0 0.00 0.00 0.00 46 1015.7
20260901200058 97 70 2.0 7.0 0.00 0.00 0.00 46 1015.9
20260901195537 98 113 2.0 7.0 0.00 0.00 0.00 45 1016.0
20260901195036 98 113 1.0 4.0 0.00 0.00 0.00 45 1016.0
20260901194556 98 138 2.0 4.0 0.00 0.00 0.00 45 1015.9
20260901194039 98 188 1.0 4.0 0.00 0.00 0.00 45 1015.9
20260901193540 98 155 1.0 3.0 0.00 0.00 0.00 45 1016.1
20260901193105 97 108 1.0 5.0 0.00 0.00 0.00 45 1016.3
20260901192538 97 42 2.0 5.0 0.00 0.00 0.00 46 1016.3
20260901192037 97 0 0.0 9.0 0.00 0.00 0.00 45 1016.5
20260901191608 98 118 1.0 9.0 0.00 0.00 0.00 45 1016.4
20260901191036 97 76 1.0 9.0 0.00 0.00 0.00 46 1016.4
20260901190536 97 59 2.0 7.0 0.00 0.00 0.00 47 1016.6
20260901190057 97 48 1.0 6.0 0.00 0.00 0.00 46 1016.7
20260901185536 97 54 0.0 7.0 0.00 0.00 0.00 46 1016.8
20260901185041 97 48 1.0 7.0 0.00 0.00 0.00 47 1017.0
20260901184556 97 60 2.0 7.0 0.00 0.00 0.00 46 1017.1
20260901184036 97 61 3.0 7.0 0.00 0.00 0.00 46 1017.1
20260901183540 98 61 2.0 7.0 0.00 0.00 0.00 46 1017.2
20260901183103 98 113 0.0 3.0 0.00 0.00 0.00 47 1017.3
20260901182536 97 184 1.0 3.0 0.00 0.00 0.00 48 1017.3
20260901182039 96 233 1.0 4.0 0.00 0.00 0.00 49 1017.3
20260901181610 96 0 0.0 4.0 0.00 0.00 0.00 49 1017.6
20260901181038 95 114 1.0 4.0 0.00 0.00 0.00 50 1017.7
20260901180539 95 193 1.0 4.0 0.00 0.00 0.00 50 1017.9
20260901175535 95 96 2.0 8.0 0.00 0.00 0.00 50 1018.1
20260901175038 95 111 2.0 4.0 0.00 0.00 0.00 50 1018.0
20260901174558 95 75 2.0 5.0 0.00 0.00 0.00 49 1018.1
20260901174035 95 10 2.0 5.0 0.00 0.00 0.00 49 1018.1
20260901173539 95 124 1.0 5.0 0.00 0.00 0.00 50 1018.0
20260901173106 95 100 2.0 5.0 0.00 0.00 0.00 50 1018.1
20260901172539 95 160 1.0 4.0 0.00 0.00 0.00 50 1018.2
20260901172039 95 110 2.0 4.0 0.00 0.00 0.00 49 1018.3
20260901171606 95 75 1.0 4.0 0.00 0.00 0.00 51 1018.3
20260901171041 94 320 0.0 2.0 0.00 0.00 0.00 52 1018.2
20260901170539 93 0 1.0 3.0 0.00 0.00 0.00 53 1018.4
20260901170100 94 224 1.0 3.0 0.00 0.00 0.00 52 1018.3
20260901165539 94 181 0.0 3.0 0.00 0.00 0.00 51 1018.4
20260901165040 94 127 1.0 3.0 0.00 0.00 0.00 52 1018.5
20260901164558 95 98 0.0 4.0 0.00 0.00 0.00 50 1018.5
20260901164042 95 61 2.0 4.0 0.00 0.00 0.00 51 1018.6
20260901163544 94 0 0.0 3.0 0.00 0.00 0.00 52 1018.6
20260901163112 94 0 1.0 3.0 0.00 0.00 0.00 52 1018.6
20260901162540 94 203 1.0 3.0 0.00 0.00 0.00 52 1018.7
20260901162041 94 166 0.0 2.0 0.00 0.00 0.00 53 1018.7
20260901161612 94 177 0.0 4.0 0.00 0.00 0.00 53 1018.6
20260901161040 94 204 1.0 4.0 0.00 0.00 0.00 53 1018.7
20260901160540 93 0 1.0 3.0 0.00 0.00 0.00 54 1018.7
20260901160109 94 75 1.0 3.0 0.00 0.00 0.00 53 1018.7
20260901155540 93 181 0.0 3.0 0.00 0.00 0.00 55 1018.8
20260901155039 93 0 0.0 3.0 0.00 0.00 0.00 55 1018.7
20260901154600 93 177 1.0 3.0 0.00 0.00 0.00 55 1018.8
20260901154040 93 146 1.0 3.0 0.00 0.00 0.00 54 1018.8
20260901153541 93 132 0.0 3.0 0.00 0.00 0.00 54 1018.7
20260901153108 92 176 1.0 3.0 0.00 0.00 0.00 56 1018.7
20260901152541 92 181 0.0 3.0 0.00 0.00 0.00 57 1018.7
20260901152041 91 0 1.0 3.0 0.00 0.00 0.00 58 1018.6
20260901151559 91 306 1.0 3.0 0.00 0.00 0.00 59 1018.6
20260901151042 90 281 1.0 3.0 0.00 0.00 0.00 59 1018.6
20260901150541 90 295 0.0 3.0 0.00 0.00 0.00 60 1018.6
20260901150059 89 0 0.0 3.0 0.00 0.00 0.00 61 1018.6
20260901145541 89 0 0.0 3.0 0.00 0.00 0.00 62 1018.7
20260901145043 89 0 0.0 2.0 0.00 0.00 0.00 64 1018.8
20260901144559 88 172 0.0 2.0 0.00 0.00 0.00 63 1018.8
20260901144045 88 308 0.0 1.0 0.00 0.00 0.00 64 1018.9
20260901143541 88 0 0.0 2.0 0.00 0.00 0.00 65 1018.9
20260901143104 88 271 0.0 2.0 0.00 0.00 0.00 65 1018.9
20260901142541 88 0 0.0 1.0 0.00 0.00 0.00 66 1019.0
20260901142041 87 0 0.0 0.0 0.00 0.00 0.00 67 1018.9
20260901141601 87 0 0.0 1.0 0.00 0.00 0.00 68 1018.9
20260901141039 87 194 0.0 1.0 0.00 0.00 0.00 67 1018.9
20260901140537 87 0 0.0 1.0 0.00 0.00 0.00 67 1018.9
20260901140103 87 0 0.0 1.0 0.00 0.00 0.00 68 1018.8
20260901135537 86 0 0.0 1.0 0.00 0.00 0.00 68 1018.8
20260901135036 86 0 0.0 1.0 0.00 0.00 0.00 68 1018.8
20260901134556 86 0 0.0 1.0 0.00 0.00 0.00 67 1018.9
20260901134036 86 172 0.0 1.0 0.00 0.00 0.00 67 1018.9
20260901133537 86 0 0.0 1.0 0.00 0.00 0.00 67 1018.9
20260901133102 86 0 0.0 1.0 0.00 0.00 0.00 68 1018.8
20260901132543 85 0 0.0 1.0 0.00 0.00 0.00 69 1018.9
20260901132039 84 0 0.0 1.0 0.00 0.00 0.00 71 1018.9
20260901131556 83 0 0.0 1.0 0.00 0.00 0.00 71 1018.9
20260901131037 83 0 0.0 1.0 0.00 0.00 0.00 71 1018.7
20260901130537 83 0 0.0 0.0 0.00 0.00 0.00 71 1018.8
20260901125539 81 0 0.0 0.0 0.00 0.00 0.00 74 1018.6
20260901125036 80 0 0.0 0.0 0.00 0.00 0.00 75 1018.5
20260901124609 79 0 0.0 0.0 0.00 0.00 0.00 76 1018.5
20260901124039 78 0 0.0 0.0 0.00 0.00 0.00 78 1018.5
20260901123537 77 0 0.0 0.0 0.00 0.00 0.00 79 1018.3
20260901123102 77 0 0.0 0.0 0.00 0.00 0.00 79 1018.3
20260901122539 76 0 0.0 0.0 0.00 0.00 0.00 80 1018.3
20260901122038 76 0 0.0 0.0 0.00 0.00 0.00 80 1018.2
20260901121559 76 0 0.0 0.0 0.00 0.00 0.00 80 1018.0
20260901121038 76 0 0.0 0.0 0.00 0.00 0.00 80 1018.1
20260901120539 76 0 0.0 0.0 0.00 0.00 0.00 80 1018.1
20260901120100 76 0 0.0 0.0 0.00 0.00 0.00 80 1018.0
20260901115538 76 0 0.0 0.0 0.00 0.00 0.00 79 1018.1
20260901115039 76 0 0.0 0.0 0.00 0.00 0.00 79 1017.9
20260901114638 76 0 0.0 0.0 0.00 0.00 0.00 79 1017.8
20260901114040 76 0 0.0 0.0 0.00 0.00 0.00 79 1017.8
20260901113542 76 0 0.0 0.0 0.00 0.00 0.00 79 1017.6
20260901113107 76 0 0.0 0.0 0.00 0.00 0.00 79 1017.7
20260901112539 76 0 0.0 0.0 0.00 0.00 0.00 79 1017.7
20260901112036 76 0 0.0 0.0 0.00 0.00 0.00 79 1017.7
20260901111603 76 0 0.0 0.0 0.00 0.00 0.00 78 1017.7
20260901111039 76 0 0.0 0.0 0.00 0.00 0.00 78 1017.6
20260901110540 76 0 0.0 0.0 0.00 0.00 0.00 78 1017.5
20260901105542 76 0 0.0 0.0 0.00 0.00 0.00 78 1017.6
20260901105039 76 0 0.0 0.0 0.00 0.00 0.00 78 1017.6
20260901104601 76 0 0.0 0.0 0.00 0.00 0.00 77 1017.6
20260901104039 76 0 0.0 0.0 0.00 0.00 0.00 77 1017.7
20260901103540 76 0 0.0 0.0 0.00 0.00 0.00 77 1017.6
20260901103056 76 0 0.0 0.0 0.00 0.00 0.00 77 1017.7
20260901102539 76 0 0.0 0.0 0.00 0.00 0.00 77 1017.5
20260901102041 76 0 0.0 0.0 0.00 0.00 0.00 77 1017.5
20260901101605 77 0 0.0 0.0 0.00 0.00 0.00 76 1017.5
20260901101041 77 0 0.0 0.0 0.00 0.00 0.00 76 1017.5
20260901100540 77 0 0.0 0.0 0.00 0.00 0.00 76 1017.5
20260901100106 77 0 0.0 0.0 0.00 0.00 0.00 75 1017.6
20260901095540 77 0 0.0 0.0 0.00 0.00 0.00 75 1017.5
20260901095038 77 0 0.0 0.0 0.00 0.00 0.00 75 1017.5
20260901094558 77 0 0.0 0.0 0.00 0.00 0.00 75 1017.6
20260901094039 77 0 0.0 0.0 0.00 0.00 0.00 75 1017.6
20260901093541 77 0 0.0 0.0 0.00 0.00 0.00 74 1017.6
20260901093107 77 0 0.0 0.0 0.00 0.00 0.00 74 1017.6
20260901092539 77 0 0.0 0.0 0.00 0.00 0.00 74 1017.5
20260901092041 77 0 0.0 0.0 0.00 0.00 0.00 74 1017.5
20260901091612 77 0 0.0 0.0 0.00 0.00 0.00 74 1017.5
20260901091040 77 0 0.0 0.0 0.00 0.00 0.00 74 1017.6
20260901090539 77 0 0.0 0.0 0.00 0.00 0.00 73 1017.6
20260901090100 78 0 0.0 0.0 0.00 0.00 0.00 73 1017.5
20260901085539 78 0 0.0 0.0 0.00 0.00 0.00 73 1017.5
20260901085039 78 0 0.0 0.0 0.00 0.00 0.00 72 1017.4
20260901084557 78 0 0.0 0.0 0.00 0.00 0.00 73 1017.4
20260901084040 78 0 0.0 0.0 0.00 0.00 0.00 72 1017.5
20260901083539 78 0 0.0 0.0 0.00 0.00 0.00 72 1017.4
20260901083101 78 0 0.0 0.0 0.00 0.00 0.00 72 1017.3
20260901082541 78 0 0.0 0.0 0.00 0.00 0.00 71 1017.2
20260901082038 78 0 0.0 0.0 0.00 0.00 0.00 71 1017.3
20260901081600 78 0 0.0 0.0 0.00 0.00 0.00 72 1017.4
20260901081039 78 0 0.0 0.0 0.00 0.00 0.00 71 1017.2
20260901080539 79 0 0.0 0.0 0.00 0.00 0.00 70 1017.3
20260901080106 79 0 0.0 0.0 0.00 0.00 0.00 70 1017.4
20260901075540 79 0 0.0 0.0 0.00 0.00 0.00 69 1017.4
20260901075039 79 0 0.0 0.0 0.00 0.00 0.00 69 1017.4
20260901074606 79 0 0.0 0.0 0.00 0.00 0.00 69 1017.4
20260901074039 79 0 0.0 0.0 0.00 0.00 0.00 68 1017.4
20260901073539 79 0 0.0 0.0 0.00 0.00 0.00 69 1017.3
20260901073104 79 0 0.0 0.0 0.00 0.00 0.00 68 1017.4
20260901072539 79 0 0.0 0.0 0.00 0.00 0.00 68 1017.4
20260901072040 79 0 0.0 0.0 0.00 0.00 0.00 68 1017.3
20260901071601 80 0 0.0 0.0 0.00 0.00 0.00 67 1017.3
20260901071039 80 0 0.0 0.0 0.00 0.00 0.00 67 1017.3
20260901070538 80 0 0.0 0.0 0.00 0.00 0.00 67 1017.2
20260901070113 80 0 0.0 0.0 0.00 0.00 0.00 66 1017.3